Current weather by "City, St" or "zip code"  
 
Advertise Here

Current Conditions: Eastern Oregon Regional Airport at Pendleton, OR

Overcast


37.0 F

Last Updated on Feb 28 2021, 2:53 am PST
Humidity: 62%
Wind Speed: S 10.4 mph
Barometer 30.25 in
Dewpoint: 25.0 F
Visibility: 10.00 mi
Precip: --
Heat Index: NA
Wind Chill: 30 F
Current conditions at:

Eastern Oregon Regional Airport at Pendleton, OR (KPDT)

Lat: 45.69757 Lon: 118.83444

Local Radar Image active severe weather and emergency alerts image image weather storm and storm spotter reports image weather observation monitoring service image
Local
Radar
Active
Alerts
Storm Reports Obs
Monitoring

Sign-up For Email & Text Message Weather Alert Notification Services


Advertise Here

Observation History for Eastern Oregon Regional Airport at Pendleton, OR


Time Wind
(mph)
Vis
(mi)
Weather Precip (in) Temperature (F) Relative
Humidity
Wind
Chill
(F)
Heat
Index
(F)
Pressure
Air Dwpt altimeter
(in)
sea level
(mb)
Rmks
2:53 am PST S 10.4 10.00 Overcast -- 37.0 25.0 62% 30 NA 30.25 1024.7
1:53 am PST S 10.4 10.00 Partly Cloudy -- 35.0 25.0 67% 27 NA 30.26 1025.1
12:53 am PST S 10.4 10.00 A Few Clouds -- 33.0 25.0 72% 25 NA 30.25 1024.9
11:53 pm PST S 6.9 10.00 Fair -- 35.0 26.1 70% 29 NA 30.25 1024.9
10:53 pm PST SW 12.7 10.00 Fair -- 37.0 27.0 67% 29 NA 30.25 1024.7
9:53 pm PST S 8.1 10.00 Fair -- 34.0 26.1 73% 27 NA 30.26 1025.1
8:53 pm PST S 10.4 G 20.7 10.00 Fair -- 36.0 26.1 67% 28 NA 30.26 1025.2
7:53 pm PST W 15.0 10.00 Fair -- 37.0 27.0 67% 28 NA 30.24 1024.8
6:53 pm PST W 19.6 10.00 Fair -- 38.0 27.0 65% 28 NA 30.23 1024.3
5:53 pm PST W 17.3 10.00 A Few Clouds -- 40.0 26.1 58% 31 NA 30.22 1023.7
4:53 pm PST W 9.2 10.00 A Few Clouds -- 42.0 23.0 47% 36 NA 30.21 1023.3
3:53 pm PST W 11.5 10.00 A Few Clouds -- 45.0 19.0 35% 39 NA 30.20 1022.9
2:53 pm PST W 6.9 10.00 Fair -- 45.0 21.0 39% 41 NA 30.20 1022.8
1:53 pm PST 6.9 10.00 Fair -- 45.0 21.0 39% 41 NA 30.19 1022.6
12:53 pm PST W 9.2 10.00 Overcast -- 43.0 25.0 49% 38 NA 30.19 1022.5
11:53 am PST NW 9.2 10.00 Partly Cloudy -- 40.0 27.0 60% 34 NA 30.19 1022.7
10:53 am PST W 12.7 10.00 Mostly Cloudy -- 39.0 26.1 60% 31 NA 30.18 1022.5
9:53 am PST W 16.1 10.00 Mostly Cloudy -- 39.0 28.0 65% 30 NA 30.16 1021.9
8:53 am PST W 13.8 10.00 Overcast -- 37.0 30.0 76% 28 NA 30.14 1021.1
7:53 am PST W 12.7 10.00 Overcast -- 34.0 30.0 85% 25 NA 30.11 1020.2
6:53 am PST W 15.0 10.00 Overcast -- 34.0 30.0 85% 24 NA 30.07 1018.7
5:53 am PST W 16.1 10.00 Overcast -- 34.0 30.0 85% 24 NA 30.03 1017.3
4:53 am PST W 15.0 10.00 Overcast Trace 33.0 30.9 92% 23 NA 29.99 1016.1
3:53 am PST W 17.3 5.00 Light Snow Fog/Mist Trace 34.0 30.9 89% 23 NA 29.97 1015.0

Regional Weather Observation


Eastern Oregon Regional Airport at Pendleton, OR (KPDT)

Overcast
37.0 F

Tri-Cities Airport, WA (KPSC)

Partly Cloudy
38.0 F

Richland Airport, WA (KRLD)

Overcast
39.0 F

Meacham, OR (KMEH)

Overcast
25.0 F

Walla Walla Regional Airport, WA (KALW)

Overcast
38.0 F

Sunnyside Municipal Airport, WA (K1S5)

Overcast
34.0 F
Advertise Here

Advertise Here